Home   Weather   Narragansett   Past weeks

Flag for USA Past Weather in Narragansett, Rhode Island, USA — Yesterday and Last 2 Weeks

65 °F

Passing clouds.

Feels Like: 65 °F
Forecast: 47 / 65 °F
Wind: No wind

Location: Newport State Airport

Current Time: Oct 22, 2016 at 3:16:18 AM

Latest Report: Oct 22, 2016 at 2:53 AM

Visibility: 9 mi

Pressure: 29.31 "Hg

Humidity: 100%

Dew Point: 65 °F

Location of NarragansettLocation

Past Weather in Narragansett — Graph


Narragansett Temperature Yesterday

Maximum temperature yesterday: 71 °F (at 9:53 AM)
Minimum temperature yesterday: 63 °F (at 12:53 AM)
Average temperature yesterday: 67 °F

High & Low Weather Summary for the Past Weeks

High77 °F (Oct 19, 3:53 PM)100% (Oct 7, 5:53 AM)30.47 "Hg (Oct 7, 5:53 AM)
Low39 °F (Oct 15, 1:53 AM)36% (Oct 10, 3:53 PM)29.34 "Hg (Oct 22, 1:53 AM)
Average58 °F80%30.10 "Hg
* Reported Oct 7 1:56 AM — Oct 22 1:53 AM, Narragansett, Weather by CustomWeather, © 2016

Note: Actual official high and low records may vary slightly from our data, if they occured in-between our weather recording intervals... More about our weather records


Narragansett Weather History for the Previous 24 Hours

Scroll right to see more
Time TempWeatherWind HumidityBarometerVisibility
1:53 AM
Sat, Oct 22
66 °FFog.6 mph96%29.34 "Hg0 mi
12:53 AM66 °FFog.No wind100%29.35 "Hg1 mi
11:53 PM
Fri, Oct 21
66 °FFog.No wind100%29.36 "Hg1 mi
10:53 PM66 °FMostly cloudy.3 mph100%29.39 "Hg10 mi
9:57 PM66 °FRain. Fog.8 mph100%29.44 "Hg3 mi
8:53 PM66 °FFog.14 mph100%29.45 "Hg1 mi
7:53 PM67 °FFog.14 mph97%29.48 "Hg3 mi
6:53 PM68 °FLow clouds.13 mph93%29.50 "Hg9 mi
5:53 PM68 °FOvercast.10 mph93%29.53 "Hg10 mi
4:53 PM68 °FLight rain. Mostly cloudy.12 mph93%29.57 "Hg9 mi
3:53 PM68 °FMostly cloudy.9 mph93%29.62 "Hg9 mi
2:53 PM69 °FMostly cloudy.10 mph87%29.65 "Hg10 mi
1:53 PM69 °FOvercast.10 mph90%29.69 "Hg10 mi
12:53 PM70 °FMostly cloudy.14 mph87%29.74 "Hg10 mi
11:53 AM68 °FMostly cloudy.10 mph90%29.78 "Hg10 mi
10:53 AM71 °FScattered clouds.14 mph84%29.81 "Hg10 mi
9:53 AM71 °FPassing clouds.13 mph87%29.83 "Hg10 mi
8:53 AM68 °FPartly sunny.12 mph96%29.86 "Hg10 mi
7:53 AM66 °FMostly cloudy.13 mph96%29.87 "Hg7 mi
6:53 AM65 °FPassing clouds.9 mph97%29.88 "Hg10 mi
5:53 AM66 °FFog.9 mph96%29.90 "Hg5 mi
4:53 AM65 °FFog.10 mph100%29.91 "Hg1 mi
3:53 AM65 °FFog.10 mph100%29.92 "Hg0 mi
Weather by CustomWeather, © 2016

See weather overviewHow to use our weather pages